TimeEDT,TemperatureF,Dew PointF,Humidity,Sea Level PressureIn,VisibilityMPH,Wind Direction,Wind SpeedMPH,Gust SpeedMPH,PrecipitationIn,Events,Conditions,WindDirDegrees,DateUTC
12:56 AM,71.1,66.9,87,29.89,10.0,WNW,3.5,-,N/A,,Clear,300,2013-08-28 04:56:00
1:56 AM,69.1,66.0,90,29.88,10.0,Calm,Calm,-,N/A,,Mostly Cloudy,0,2013-08-28 05:56:00
2:56 AM,68.0,66.0,93,29.86,10.0,Calm,Calm,-,N/A,,Clear,0,2013-08-28 06:56:00
3:56 AM,66.9,64.9,93,29.86,10.0,NW,3.5,-,N/A,,Clear,310,2013-08-28 07:56:00
4:56 AM,68.0,64.9,90,29.86,10.0,Calm,Calm,-,N/A,,Partly Cloudy,0,2013-08-28 08:56:00
5:56 AM,68.0,64.9,90,29.86,10.0,Calm,Calm,-,N/A,,Scattered Clouds,0,2013-08-28 09:56:00
6:56 AM,68.0,64.9,90,29.88,10.0,Calm,Calm,-,N/A,,Scattered Clouds,0,2013-08-28 10:56:00
7:56 AM,75.0,66.9,76,29.88,10.0,East,3.5,-,N/A,,Partly Cloudy,80,2013-08-28 11:56:00
8:56 AM,77.0,66.9,71,29.88,10.0,East,5.8,-,N/A,,Clear,80,2013-08-28 12:56:00
9:56 AM,79.0,66.9,66,29.88,10.0,ESE,5.8,-,N/A,,Clear,120,2013-08-28 13:56:00
10:56 AM,81.0,66.9,62,29.88,10.0,SSE,6.9,-,N/A,,Partly Cloudy,150,2013-08-28 14:56:00
11:56 AM,82.0,66.0,58,29.87,10.0,SSE,5.8,-,N/A,,Scattered Clouds,150,2013-08-28 15:56:00
12:56 PM,82.9,66.0,56,29.86,10.0,East,4.6,-,N/A,,Mostly Cloudy,90,2013-08-28 16:56:00
1:56 PM,79.0,66.9,66,29.86,10.0,SW,8.1,-,N/A,,Overcast,230,2013-08-28 17:56:00
2:56 PM,75.0,69.1,82,29.86,8.0,West,4.6,-,N/A,,Mostly Cloudy,270,2013-08-28 18:56:00
3:56 PM,75.0,69.1,82,29.87,9.0,WNW,8.1,-,N/A,,Mostly Cloudy,300,2013-08-28 19:56:00
4:56 PM,75.0,69.1,82,29.86,8.0,WNW,3.5,-,N/A,,Mostly Cloudy,300,2013-08-28 20:56:00
5:56 PM,75.0,69.1,82,29.86,9.0,NW,5.8,-,N/A,,Mostly Cloudy,320,2013-08-28 21:56:00
6:56 PM,73.9,69.1,85,29.86,7.0,NNW,3.5,-,0.00,,Mostly Cloudy,330,2013-08-28 22:56:00
7:56 PM,72.0,69.1,91,29.86,7.0,ESE,4.6,-,N/A,,Scattered Clouds,110,2013-08-28 23:56:00
8:56 PM,72.0,69.1,91,29.88,9.0,NE,5.8,-,N/A,,Clear,50,2013-08-29 00:56:00
9:56 PM,72.0,68.0,87,29.89,10.0,North,3.5,-,N/A,,Clear,360,2013-08-29 01:56:00
10:56 PM,72.0,66.0,81,29.88,10.0,Calm,Calm,-,N/A,,Clear,0,2013-08-29 02:56:00
11:56 PM,70.0,66.0,87,29.89,10.0,Calm,Calm,-,N/A,,Clear,0,2013-08-29 03:56:00